Wind_Speed
9 8 6 3 3 4 2 2 1 2 2 3 5 2 1 4 0 2 18 25 27 26 25 23 21 20 20 17 17 16 16 17 17 17 17 14 13 14 13 12 13 12 12 13 13 11 11 10 9
11 9 3 2 4 3 2 1 1 1 2 5 3 1 3 2 1 9 27 25 27 26 25 24 23 20 19 17 16 16 17 16 15 15 13 13 14 13 12 11 11 13 14 13 13 13 12 12 12
9 8 3 4 3 1 2 2 2 2 4 2 2 5 2 1 2 29 19 30 27 25 24 23 21 20 19 17 17 15 15 13 13 13 13 12 12 11 11 11 12 12 11 11 11 10 12 13 10
12 4 4 4 3 3 2 2 2 3 1 3 4 5 4 2 20 17 26 29 26 24 23 21 20 19 18 17 15 18 15 12 12 11 10 10 10 11 11 10 10 10 10 9 10 10 10 11 9
9 3 4 3 3 2 3 2 4 2 2 2 3 4 5 13 10 20 26 26 25 23 20 19 18 17 15 14 15 15 13 11 10 9 8 9 10 10 9 9 9 9 7 7 7 7 8 9 7
4 2 4 1 3 2 2 4 3 4 6 4 5 7 4 7 12 22 23 24 22 20 20 17 16 15 15 14 14 13 12 10 9 8 8 9 9 8 8 8 8 7 6 6 5 6 8 7 7
3 3 0 1 3 2 4 7 2 2 5 1 11 3 4 12 17 22 22 23 20 19 18 17 16 14 14 13 12 11 9 9 10 10 9 7 9 7 6 7 7 7 5 4 5 5 6 6 7
1 3 1 3 2 4 3 11 3 7 4 8 8 4 6 18 25 22 23 22 20 17 16 16 16 17 15 14 12 9 9 11 11 10 10 9 9 8 8 7 7 5 3 8 5 5 6 8 6
1 3 2 4 5 3 8 4 6 4 4 6 8 4 5 24 26 25 25 23 21 18 16 14 14 14 13 12 10 9 10 12 10 10 9 9 9 8 8 8 6 4 12 10 9 7 7 8 7
3 3 6 5 3 4 10 7 9 4 5 4 7 4 16 26 29 27 27 25 23 20 18 15 13 12 13 12 11 10 10 12 12 10 10 10 9 8 7 6 6 12 3 5 12 11 9 9 8
3 4 4 7 14 5 6 9 9 5 3 12 21 19 26 27 28 27 26 23 21 18 18 17 16 14 14 13 11 11 13 14 13 11 12 11 9 6 3 2 5 7 5 1 5 10 8 10 10
3 9 9 7 11 4 6 7 5 13 0 6 17 21 27 27 27 28 25 24 20 20 20 17 16 15 15 15 10 8 11 13 14 13 12 10 6 4 4 5 7 4 2 1 5 7 6 5 9
4 5 8 14 9 9 7 7 3 9 6 8 17 23 25 26 27 27 23 22 21 22 19 17 16 16 16 16 10 9 11 14 15 15 12 9 7 4 3 2 3 4 4 1 4 5 5 6 7
9 14 17 7 11 7 8 2 2 2 7 14 21 27 27 26 26 27 27 24 24 21 20 18 16 17 17 14 10 8 11 14 17 15 12 10 7 3 2 2 3 1 4 3 4 5 5 6 6
9 6 7 1 4 3 8 1 6 9 18 23 27 29 29 28 27 28 26 28 26 24 20 18 17 18 19 14 12 8 12 16 18 16 12 11 5 4 3 2 1 1 3 2 3 5 5 6 7
4 4 5 5 3 3 7 6 6 17 24 23 28 30 32 30 31 28 27 27 27 26 23 19 18 19 19 17 13 9 14 15 16 18 14 11 6 4 2 2 5 3 3 2 5 3 3 4 5
7 2 5 7 7 4 4 7 5 22 27 25 25 24 29 29 30 31 29 28 29 27 25 22 20 19 18 17 14 11 14 16 16 17 15 11 8 7 4 3 4 4 3 1 3 7 3 3 5
4 5 5 6 3 6 7 12 5 23 25 30 29 29 31 30 32 31 30 31 29 29 26 24 20 19 16 15 15 14 17 17 18 17 14 10 6 6 5 3 1 5 4 2 2 3 6 5 5
3 3 5 18 10 8 13 13 12 19 17 15 25 30 31 37 33 32 33 30 30 30 28 27 23 19 18 19 15 17 19 20 20 16 15 12 8 5 6 6 3 5 3 2 3 3 2 6 6
3 5 10 12 4 6 0 12 9 11 14 22 24 26 35 33 31 25 30 31 29 28 28 28 26 22 19 17 13 15 17 21 21 17 14 13 10 8 8 8 5 3 1 3 4 5 5 5 6
5 5 5 7 4 3 2 8 5 4 12 10 17 15 21 28 26 25 29 32 29 29 27 26 24 21 19 16 16 14 15 20 20 21 17 13 11 9 8 7 7 5 4 5 4 5 5 4 4
5 8 10 5 1 4 3 5 5 3 6 7 21 22 19 22 25 26 27 31 31 31 27 24 22 20 20 19 18 17 16 21 21 20 17 14 13 11 8 6 6 5 6 4 5 6 4 4 3
9 4 1 3 1 3 3 2 8 3 5 6 15 27 28 26 25 28 31 27 29 29 28 25 20 20 21 20 19 19 15 15 22 20 18 17 15 12 9 7 8 8 7 6 5 5 6 6 6
3 4 6 4 3 3 1 2 6 3 5 5 4 19 28 29 29 26 26 25 29 30 23 23 25 21 21 21 21 21 16 16 22 22 20 17 14 13 12 10 9 10 10 9 7 7 7 7 6
5 6 3 4 5 5 1 0 8 9 7 5 9 10 17 28 29 28 24 29 33 29 27 28 27 24 22 22 23 22 19 18 21 23 20 18 14 14 13 12 10 11 10 10 9 9 8 7 7
7 8 6 4 3 6 2 4 5 4 10 12 14 6 7 17 27 31 29 29 30 9 22 31 29 26 24 23 23 23 22 19 23 24 22 19 15 12 12 14 13 12 11 11 11 9 9 9 6
3 4 3 7 3 3 3 7 7 4 10 14 16 12 3 13 22 27 33 33 29 30 10 13 27 28 26 24 23 23 23 20 23 24 22 21 15 12 13 13 12 11 12 10 11 10 8 9 8
5 6 4 3 1 3 5 5 5 11 11 11 11 15 11 6 15 24 27 31 28 34 20 25 18 26 26 25 23 22 23 22 21 22 22 21 18 13 13 13 12 12 10 8 8 8 7 8 7
1 1 7 5 4 4 1 6 7 7 7 7 9 9 8 6 10 16 24 26 24 25 21 12 22 24 27 27 23 22 22 23 22 23 20 21 19 18 15 14 14 12 9 9 7 8 10 10 11
2 4 4 5 3 2 3 6 5 7 8 11 10 3 5 3 5 12 17 22 24 25 33 28 18 22 26 25 22 23 21 19 21 24 23 20 19 19 17 16 15 14 13 11 12 11 11 12 12
Wind_Direction
7 2 0 26 53 69 105 117 201 352 45 20 43 178 184 47 76 204 146 158 163 155 153 155 152 147 151 147 144 148 145 140 142 146 154 158 163 166 169 178 188 198 202 201 200 191 191 196 209
4 3 18 60 64 44 312 4 180 212 265 8 91 177 25 78 49 150 148 155 162 156 155 158 157 154 154 156 150 152 155 153 153 158 164 169 173 171 180 192 202 209 213 210 206 210 221 216 215
357 13 28 84 95 99 251 229 229 269 264 321 81 76 69 55 130 148 152 155 163 160 160 159 162 161 159 163 161 163 161 156 159 163 168 173 179 181 196 198 206 214 213 211 213 211 219 226 214
353 9 56 65 113 154 209 4 335 303 313 214 152 76 78 2 149 153 155 157 161 163 163 163 164 163 163 169 166 165 167 165 169 172 179 185 188 187 199 202 211 209 211 212 216 210 214 223 222
356 31 51 64 332 329 139 184 179 290 274 186 140 118 85 128 157 154 155 156 162 164 164 162 165 168 167 172 168 174 183 185 182 184 189 185 188 192 189 191 193 198 202 203 203 206 213 216 202
15 45 49 38 273 250 251 203 184 211 177 148 109 112 120 175 155 156 154 156 164 165 163 164 162 168 172 171 173 176 176 183 191 183 178 179 180 179 179 186 190 192 195 195 191 202 211 209 183
93 73 287 248 281 265 212 191 232 208 119 134 142 84 127 166 169 156 155 161 166 167 168 168 165 171 177 180 181 185 194 187 185 169 175 186 177 177 181 192 182 183 179 185 198 201 208 220 179
41 90 26 269 263 270 195 165 224 188 195 139 146 166 177 171 166 159 159 164 167 170 175 173 174 175 181 184 182 181 189 177 173 170 166 179 180 182 176 170 178 178 189 201 201 214 217 232 207
179 60 281 254 187 244 157 155 178 225 159 135 183 241 202 164 166 162 164 169 170 172 178 180 182 183 186 183 176 185 187 169 161 166 164 170 174 175 173 179 169 171 217 210 217 211 216 227 234
120 126 229 218 210 199 185 184 182 176 135 181 171 195 164 168 170 172 173 174 175 180 177 185 190 190 192 189 183 188 187 180 183 172 173 170 155 161 180 186 166 229 290 199 230 230 220 229 234
202 216 223 237 221 199 165 185 174 171 196 202 186 170 168 173 179 181 182 186 183 184 188 186 190 190 198 187 190 195 191 184 178 176 169 166 168 181 198 202 216 245 271 26 161 206 223 238 235
279 270 246 318 211 176 168 163 195 207 234 250 205 191 176 179 185 188 191 189 186 190 191 195 193 194 198 190 187 195 196 190 192 188 189 184 181 210 243 248 233 227 236 119 160 198 228 230 230
179 293 313 246 223 219 167 188 226 226 271 164 175 182 182 184 189 195 197 191 192 196 198 198 197 193 191 196 196 199 197 193 190 186 183 189 191 206 216 187 189 226 237 289 192 213 238 248 227
304 297 294 269 202 194 168 189 223 215 183 163 179 184 191 192 196 200 201 203 205 203 203 201 194 186 190 199 190 191 195 189 190 191 193 185 192 218 194 173 155 212 276 243 184 204 218 236 228
286 318 329 120 195 222 151 188 227 198 176 171 180 192 199 200 205 212 212 213 212 208 206 205 195 192 195 199 199 198 198 195 193 195 197 190 190 182 205 229 195 299 225 167 174 201 212 213 215
357 43 14 300 144 230 162 258 218 184 181 179 186 194 199 211 215 220 222 222 220 215 213 207 208 204 198 205 210 207 198 192 199 201 202 194 197 188 178 268 338 247 249 189 213 208 231 228 221
9 335 316 323 213 134 189 271 227 191 190 193 199 201 208 213 218 224 229 227 228 221 219 218 214 214 206 202 211 206 200 196 195 199 201 212 216 221 238 288 318 164 153 52 258 234 242 234 217
292 321 304 255 272 182 211 251 240 207 195 199 202 211 214 215 220 221 229 232 235 233 229 225 223 221 213 206 211 205 204 197 195 196 201 207 206 211 218 221 284 195 218 256 283 193 185 224 256
268 253 259 288 270 224 225 240 222 215 214 208 212 215 213 220 224 232 237 228 229 233 232 229 223 215 213 216 218 210 207 202 197 202 200 206 211 225 221 232 240 241 195 259 227 240 222 216 208
234 290 281 277 316 170 181 262 251 198 215 207 208 224 225 227 236 235 224 221 225 231 232 231 225 213 217 223 218 219 211 210 206 205 206 209 222 215 217 224 216 197 209 266 265 273 276 224 231
217 198 257 229 340 314 337 293 281 240 200 193 214 228 221 225 219 216 214 220 221 226 229 229 227 218 217 220 216 217 215 214 209 212 211 214 215 206 201 222 224 222 254 251 256 285 289 266 232
301 214 247 277 209 266 25 285 298 323 270 222 237 231 235 223 217 221 211 220 221 228 227 228 229 225 225 222 220 222 224 216 208 207 208 214 214 209 215 229 228 246 258 261 294 262 292 315 276
237 30 70 26 51 357 14 45 271 345 283 254 239 237 238 216 218 218 219 224 220 230 226 231 230 231 227 225 224 226 225 217 211 210 214 222 219 224 229 235 246 251 259 269 285 283 283 296 287
140 62 40 51 48 9 340 128 293 348 289 316 239 241 226 218 218 217 220 219 222 222 230 229 235 234 231 227 227 225 224 211 210 204 211 207 218 227 238 250 253 260 259 269 280 284 293 275 276
83 66 341 343 358 230 287 148 250 298 306 242 292 269 233 219 211 207 208 211 220 221 219 232 230 233 233 227 226 225 223 214 208 207 213 220 229 237 240 247 262 265 268 269 271 279 288 291 281
189 155 156 222 232 277 272 252 261 236 321 331 350 284 238 220 213 213 215 214 207 222 227 229 228 230 231 226 224 223 221 218 212 215 222 231 240 248 236 242 256 252 257 263 262 281 284 279 287
161 168 183 103 23 32 267 296 294 306 345 2 4 27 313 233 219 219 219 220 210 201 217 218 230 228 232 231 224 224 223 219 214 218 229 233 238 236 228 238 237 246 259 268 255 267 282 271 274
177 159 71 17 160 273 298 291 247 330 321 331 346 1 9 235 228 211 213 217 209 206 226 240 232 224 225 229 224 226 227 223 219 223 231 234 239 242 237 230 237 247 241 243 259 272 270 268 271
77 323 53 113 116 167 299 281 218 262 282 288 297 334 6 62 196 214 205 212 211 206 202 207 218 226 224 232 227 229 231 230 228 227 232 238 242 243 249 235 245 249 244 264 272 280 272 281 275
189 155 128 121 211 103 143 273 236 233 259 266 285 310 354 48 159 199 203 213 215 212 218 228 229 217 224 231 231 233 231 233 235 232 231 234 240 243 245 244 254 264 267 266 275 273 271 275 277
Height
1511 1509 1508 1508 1517 1520 1530 1527 1520 1522 1522 1521 1521 1521 1523 1524 1525 1536 1527 1532 1536 1539 1543 1546 1551 1554 1555 1558 1558 1560 1562 1563 1564 1565 1567 1568 1568 1569 1570 1572 1572 1572 1573 1574 1576 1577 1578 1579 1580
1511 1510 1509 1509 1526 1538 1535 1522 1523 1521 1520 1520 1521 1522 1523 1526 1525 1526 1529 1533 1538 1540 1544 1547 1551 1555 1557 1560 1561 1563 1563 1564 1565 1567 1568 1569 1569 1570 1571 1572 1572 1573 1573 1574 1575 1577 1578 1578 1580
1512 1510 1511 1515 1530 1539 1534 1521 1520 1519 1520 1520 1522 1523 1524 1525 1526 1528 1531 1534 1539 1541 1545 1549 1553 1556 1559 1561 1562 1564 1565 1567 1567 1568 1570 1570 1571 1571 1572 1572 1572 1572 1572 1573 1576 1577 1577 1577 1580
1513 1513 1514 1523 1526 1523 1523 1520 1521 1520 1519 1519 1521 1524 1525 1524 1528 1530 1533 1536 1540 1543 1547 1550 1553 1556 1559 1561 1562 1564 1565 1567 1568 1569 1571 1572 1571 1572 1572 1572 1571 1571 1572 1574 1575 1575 1576 1577 1579
1515 1515 1525 1530 1526 1520 1519 1519 1519 1519 1519 1518 1519 1526 1529 1530 1531 1532 1535 1538 1542 1545 1548 1551 1554 1556 1558 1561 1562 1564 1566 1568 1568 1570 1572 1572 1572 1572 1571 1572 1572 1572 1572 1574 1575 1575 1576 1577 1579
1516 1518 1533 1538 1527 1519 1518 1517 1517 1518 1517 1519 1519 1525 1529 1531 1533 1534 1537 1541 1544 1546 1549 1551 1554 1557 1559 1560 1563 1564 1565 1567 1568 1570 1571 1571 1571 1571 1572 1572 1573 1573 1574 1574 1575 1577 1577 1578 1579
1518 1523 1531 1530 1527 1521 1517 1517 1517 1516 1517 1520 1520 1525 1529 1530 1533 1536 1539 1542 1545 1547 1550 1552 1555 1557 1559 1561 1562 1563 1565 1567 1568 1570 1570 1571 1571 1572 1572 1573 1574 1575 1575 1574 1574 1576 1577 1578 1580
1518 1521 1528 1529 1529 1522 1514 1516 1517 1518 1519 1520 1521 1524 1528 1529 1533 1536 1539 1543 1546 1548 1551 1553 1555 1558 1559 1560 1562 1563 1565 1566 1568 1569 1569 1571 1572 1572 1573 1574 1575 1576 1574 1574 1575 1576 1578 1577 1579
1519 1529 1535 1525 1524 1515 1514 1515 1516 1517 1518 1520 1522 1522 1524 1527 1532 1536 1539 1543 1546 1548 1551 1553 1555 1557 1559 1560 1561 1563 1564 1566 1567 1568 1570 1570 1571 1572 1573 1574 1576 1572 1574 1575 1576 1575 1576 1577 1578
1520 1531 1523 1513 1511 1512 1512 1514 1515 1517 1518 1520 1522 1522 1524 1527 1531 1534 1538 1541 1544 1547 1550 1553 1555 1557 1558 1559 1561 1562 1564 1566 1566 1568 1569 1570 1572 1573 1574 1575 1574 1573 1574 1574 1575 1576 1576 1576 1578
1519 1523 1512 1507 1507 1509 1511 1514 1515 1516 1519 1516 1516 1520 1523 1527 1531 1535 1538 1541 1542 1546 1549 1551 1554 1555 1557 1559 1561 1562 1563 1564 1566 1568 1569 1571 1572 1573 1574 1575 1575 1575 1574 1574 1574 1575 1575 1575 1577
1519 1511 1510 1507 1507 1509 1511 1512 1513 1513 1513 1513 1514 1517 1520 1525 1529 1533 1537 1540 1543 1545 1547 1549 1552 1554 1557 1558 1560 1561 1562 1565 1567 1568 1569 1571 1572 1573 1573 1574 1576 1575 1574 1573 1574 1574 1574 1574 1576
1514 1510 1507 1505 1507 1509 1510 1511 1513 1512 1512 1513 1515 1518 1520 1524 1528 1532 1536 1540 1542 1543 1546 1548 1550 1552 1556 1558 1560 1560 1562 1564 1566 1568 1569 1571 1573 1573 1573 1574 1576 1576 1574 1574 1574 1573 1573 1574 1576
1513 1509 1506 1503 1504 1507 1510 1512 1513 1512 1511 1513 1515 1518 1521 1523 1527 1531 1534 1537 1540 1543 1545 1548 1549 1551 1554 1557 1559 1560 1561 1562 1565 1567 1569 1571 1572 1573 1573 1574 1575 1576 1575 1574 1574 1574 1574 1574 1575
1512 1513 1506 1505 1506 1509 1509 1514 1512 1510 1510 1508 1511 1516 1519 1521 1525 1527 1531 1534 1537 1540 1544 1547 1549 1551 1553 1555 1557 1558 1560 1562 1564 1567 1569 1570 1572 1574 1574 1574 1575 1575 1575 1574 1573 1574 1574 1574 1575
1514 1516 1526 1507 1506 1508 1511 1519 1505 1506 1508 1511 1511 1513 1514 1519 1521 1525 1528 1532 1536 1539 1542 1546 1549 1550 1552 1554 1556 1557 1560 1562 1564 1566 1568 1570 1572 1574 1574 1574 1574 1574 1574 1574 1574 1574 1574 1574 1574
1526 1533 1526 1517 1505 1507 1511 1512 1503 1503 1505 1508 1511 1513 1514 1516 1518 1522 1525 1528 1531 1535 1539 1542 1546 1549 1550 1553 1556 1556 1559 1561 1563 1565 1568 1570 1571 1573 1573 1574 1573 1574 1574 1574 1574 1574 1574 1572 1572
1536 1534 1526 1525 1508 1505 1507 1505 1502 1500 1501 1501 1506 1509 1511 1512 1512 1516 1520 1525 1528 1532 1537 1540 1543 1547 1549 1551 1554 1555 1557 1560 1562 1565 1567 1569 1570 1572 1573 1573 1573 1573 1574 1574 1574 1574 1574 1573 1573
1526 1529 1530 1509 1500 1506 1503 1499 1497 1496 1502 1503 1503 1504 1507 1508 1511 1514 1517 1520 1525 1529 1533 1536 1540 1544 1547 1549 1550 1552 1554 1558 1561 1564 1566 1568 1569 1571 1572 1572 1573 1573 1573 1573 1574 1574 1574 1573 1573
1525 1529 1523 1508 1497 1500 1501 1501 1492 1492 1492 1497 1500 1500 1502 1506 1509 1509 1511 1517 1521 1525 1530 1533 1536 1540 1543 1546 1548 1551 1554 1557 1560 1562 1565 1568 1569 1570 1571 1572 1572 1573 1573 1573 1573 1573 1573 1572 1572
1524 1527 1520 1516 1503 1502 1503 1505 1493 1486 1489 1493 1493 1494 1497 1500 1501 1504 1507 1511 1518 1522 1526 1530 1534 1538 1541 1543 1546 1549 1551 1554 1557 1560 1563 1566 1568 1569 1570 1571 1572 1572 1572 1572 1572 1571 1571 1570 1571
1525 1508 1506 1509 1511 1527 1507 1533 1498 1489 1487 1487 1487 1488 1491 1494 1496 1500 1505 1508 1514 1519 1525 1528 1531 1535 1539 1541 1544 1546 1548 1550 1554 1558 1562 1564 1566 1568 1570 1570 1571 1571 1571 1571 1571 1570 1570 1570 1570
1513 1503 1505 1508 1515 1517 1518 1530 1503 1493 1488 1484 1479 1479 1483 1489 1493 1495 1499 1504 1510 1517 1522 1527 1530 1533 1536 1539 1542 1544 1545 1547 1552 1556 1559 1562 1564 1566 1567 1569 1569 1570 1570 1571 1570 1569 1570 1570 1570
1501 1506 1512 1520 1526 1538 1522 1522 1510 1498 1490 1482 1479 1476 1478 1483 1488 1493 1497 1503 1507 1513 1519 1523 1526 1530 1533 1536 1539 1542 1544 1546 1549 1553 1557 1560 1562 1564 1565 1567 1568 1567 1569 1569 1569 1568 1568 1568 1568
1506 1520 1548 1543 1549 1543 1527 1526 1510 1490 1481 1477 1474 1473 1472 1478 1483 1488 1492 1496 1500 1504 1511 1517 1522 1526 1530 1533 1536 1539 1542 1544 1547 1551 1555 1558 1560 1561 1564 1565 1566 1566 1567 1567 1567 1567 1567 1567 1568
1509 1515 1543 1547 1554 1542 1523 1525 1499 1484 1480 1476 1472 1470 1471 1475 1480 1483 1486 1490 1496 1504 1506 1510 1517 1523 1527 1529 1532 1536 1539 1541 1544 1549 1553 1556 1558 1560 1561 1563 1563 1564 1565 1566 1565 1565 1565 1566 1566
1505 1517 1507 1536 1544 1545 1530 1509 1487 1483 1477 1476 1474 1471 1473 1474 1475 1480 1483 1486 1494 1501 1503 1505 1511 1518 1523 1527 1530 1533 1536 1538 1541 1546 1549 1553 1555 1557 1558 1560 1561 1562 1563 1563 1564 1563 1563 1564 1564
1493 1498 1519 1532 1537 1541 1533 1522 1515 1490 1485 1480 1474 1471 1470 1470 1473 1478 1484 1486 1493 1496 1498 1500 1507 1514 1519 1524 1527 1530 1533 1535 1539 1543 1546 1550 1553 1554 1556 1557 1558 1559 1560 1561 1562 1562 1562 1562 1563
1500 1505 1516 1523 1535 1545 1549 1528 1494 1491 1486 1482 1475 1472 1469 1467 1469 1476 1481 1484 1489 1494 1498 1500 1505 1511 1516 1521 1524 1527 1530 1532 1535 1539 1543 1546 1549 1552 1553 1555 1556 1557 1559 1559 1559 1560 1560 1560 1560
1489 1497 1505 1526 1527 1543 1542 1527 1481 1483 1482 1479 1474 1470 1469 1468 1469 1473 1481 1483 1487 1491 1494 1498 1503 1507 1512 1517 1520 1524 1526 1529 1532 1535 1539 1543 1546 1548 1550 1552 1553 1554 1556 1556 1556 1557 1557 1557 1557